Radiation Dose at Monitoring Post of Fukushima Daini Nuclear Power Station
Date,Time,MP-1(microSv/h),MP-2(microSv/h),MP-3(microSv/h),MP-4(microSv/h),MP-5(microSv/h),MP-6(microSv/h),MP-7(microSv/h),Wind Direction,Wind Velocity(m/s),Rain
2015/08/14,00:00,0.506,0.287,0.525,0.480,0.460,0.234,0.203,north-northwest,7.1,No
2015/08/14,00:10,0.502,0.287,0.529,0.477,0.459,0.234,0.204,north-northwest,6.9,No
2015/08/14,00:20,0.507,0.289,0.524,0.479,0.453,0.233,0.202,north-northwest,6.4,Yes
2015/08/14,00:30,0.506,0.287,0.525,0.483,0.457,0.234,0.203,north-northwest,6.2,No
2015/08/14,00:40,0.502,0.289,0.528,0.475,0.457,0.232,0.204,north-northwest,7.4,No
2015/08/14,00:50,0.507,0.291,0.524,0.479,0.454,0.233,0.204,north-northwest,6.7,No
2015/08/14,01:00,0.508,0.287,0.526,0.483,0.460,0.234,0.203,north-northwest,6.0,No
2015/08/14,01:10,0.503,0.289,0.530,0.477,0.459,0.233,0.204,north-northwest,6.6,No
2015/08/14,01:20,0.507,0.290,0.525,0.477,0.455,0.234,0.203,north-northwest,5.9,No
2015/08/14,01:30,0.509,0.287,0.526,0.483,0.458,0.234,0.203,north-northwest,6.5,No
2015/08/14,01:40,0.505,0.288,0.530,0.478,0.460,0.232,0.204,north-northwest,6.2,No
2015/08/14,01:50,0.505,0.289,0.526,0.475,0.454,0.235,0.202,north-northwest,6.2,No
2015/08/14,02:00,0.508,0.287,0.524,0.483,0.457,0.234,0.203,north-northwest,6.0,No
2015/08/14,02:10,0.505,0.289,0.530,0.477,0.458,0.234,0.203,north-northwest,6.3,No
2015/08/14,02:20,0.503,0.291,0.526,0.478,0.454,0.233,0.203,north-northwest,6.8,No
2015/08/14,02:30,0.509,0.287,0.524,0.484,0.457,0.235,0.203,north-northwest,7.4,Yes
2015/08/14,02:40,0.507,0.288,0.532,0.480,0.459,0.233,0.204,north-northwest,6.1,No
2015/08/14,02:50,0.503,0.290,0.528,0.476,0.455,0.234,0.204,north-northwest,4.7,No
2015/08/14,03:00,0.510,0.288,0.522,0.483,0.456,0.233,0.203,northwest,4.7,No
2015/08/14,03:10,0.508,0.288,0.530,0.480,0.461,0.234,0.204,north-northwest,5.7,No
2015/08/14,03:20,0.501,0.291,0.528,0.476,0.454,0.234,0.204,north-northwest,6.1,No
2015/08/14,03:30,0.510,0.289,0.523,0.479,0.454,0.234,0.202,north-northwest,6.1,No
2015/08/14,03:40,0.508,0.286,0.526,0.480,0.460,0.233,0.204,north-northwest,6.1,No
2015/08/14,03:50,0.505,0.290,0.529,0.477,0.458,0.233,0.204,north-northwest,5.3,No
2015/08/14,04:00,0.509,0.288,0.526,0.480,0.454,0.234,0.202,north-northwest,5.2,No
2015/08/14,04:10,0.510,0.286,0.526,0.481,0.460,0.234,0.205,north-northwest,5.1,No
2015/08/14,04:20,0.505,0.291,0.531,0.478,0.459,0.234,0.204,north-northwest,5.0,No
2015/08/14,04:30,0.502,0.289,0.526,0.477,0.453,0.233,0.203,north-northwest,5.2,No
2015/08/14,04:40,0.510,0.287,0.523,0.482,0.459,0.234,0.206,north-northwest,5.1,No
2015/08/14,04:50,0.508,0.289,0.532,0.479,0.459,0.234,0.204,north-northwest,5.3,No
2015/08/14,05:00,0.504,0.291,0.529,0.477,0.454,0.235,0.203,north-northwest,5.0,No
2015/08/14,05:10,0.508,0.287,0.524,0.484,0.458,0.235,0.204,north-northwest,4.3,No
2015/08/14,05:20,0.509,0.288,0.529,0.481,0.460,0.232,0.204,north-northwest,3.7,No
2015/08/14,05:30,0.505,0.290,0.529,0.477,0.454,0.235,0.203,north-northwest,3.4,No
2015/08/14,05:40,0.505,0.289,0.525,0.482,0.453,0.235,0.205,north-northwest,3.0,No
2015/08/14,05:50,0.508,0.286,0.526,0.482,0.462,0.234,0.204,north-northwest,2.8,No
2015/08/14,06:00,0.506,0.291,0.531,0.477,0.458,0.235,0.203,north-northwest,2.7,No
2015/08/14,06:10,0.503,0.290,0.525,0.479,0.453,0.234,0.203,north-northwest,3.3,No
2015/08/14,06:20,0.510,0.288,0.522,0.484,0.458,0.234,0.204,north-northwest,4.0,No
2015/08/14,06:30,0.510,0.288,0.531,0.480,0.463,0.234,0.205,north,4.2,No
2015/08/14,06:40,0.506,0.290,0.529,0.476,0.457,0.236,0.203,north,4.7,No
2015/08/14,06:50,0.504,0.289,0.525,0.480,0.455,0.234,0.204,north,4.7,No
2015/08/14,07:00,0.510,0.288,0.524,0.484,0.456,0.233,0.205,north,4.5,No
2015/08/14,07:10,0.510,0.287,0.531,0.480,0.460,0.234,0.205,north,4.5,No
2015/08/14,07:20,0.506,0.290,0.529,0.476,0.458,0.235,0.203,north,5.2,No
2015/08/14,07:30,0.506,0.289,0.525,0.480,0.455,0.236,0.204,north,5.7,No
2015/08/14,07:40,0.510,0.289,0.525,0.483,0.453,0.235,0.203,north,5.1,No
2015/08/14,07:50,0.510,0.288,0.531,0.482,0.461,0.234,0.203,north,4.4,No
2015/08/14,08:00,0.505,0.286,0.530,0.478,0.461,0.234,0.204,north,4.3,No
2015/08/14,08:10,0.504,0.288,0.527,0.475,0.458,0.236,0.203,north,5.4,No
2015/08/14,08:20,0.504,0.287,0.522,0.475,0.456,0.236,0.203,north,4.6,No
2015/08/14,08:30,0.510,0.286,0.528,0.475,0.455,0.236,0.204,north,4.8,No
2015/08/14,08:40,0.509,0.287,0.531,0.482,0.453,0.235,0.203,north-northeast,7.5,No
2015/08/14,08:50,0.508,0.290,0.529,0.485,0.459,0.234,0.203,north-northeast,7.0,No
2015/08/14,09:00,0.504,0.291,0.526,0.481,0.460,0.234,0.204,north-northeast,7.1,No
2015/08/14,09:10,0.508,0.288,0.523,0.479,0.460,0.234,0.204,north-northeast,7.0,No
2015/08/14,09:20,0.511,0.287,0.527,0.476,0.457,0.233,0.207,north-northeast,6.9,No
2015/08/14,09:30,0.508,0.288,0.532,0.482,0.456,0.236,0.205,north,5.6,No
2015/08/14,09:40,0.505,0.291,0.529,0.486,0.460,0.236,0.205,north,5.2,No
2015/08/14,09:50,0.511,0.292,0.525,0.481,0.461,0.234,0.204,north,5.8,No
2015/08/14,10:00,0.511,0.291,0.529,0.480,0.460,0.235,0.206,north,6.5,No
2015/08/14,10:10,0.508,0.290,0.532,0.474,0.457,0.235,0.207,north,6.5,No
2015/08/14,10:20,0.505,0.290,0.530,0.483,0.456,0.236,0.205,north,7.7,No
2015/08/14,10:30,0.511,0.292,0.526,0.485,0.461,0.235,0.204,north-northeast,7.2,No
2015/08/14,10:40,0.510,0.290,0.522,0.480,0.462,0.235,0.204,north-northeast,7.7,No
2015/08/14,10:50,0.508,0.288,0.528,0.480,0.459,0.234,0.203,north,7.5,No
2015/08/14,11:00,0.505,0.287,0.530,0.478,0.456,0.236,0.204,north,7.1,No
2015/08/14,11:10,0.505,0.288,0.529,0.476,0.455,0.236,0.204,north,7.4,No
2015/08/14,11:20,0.512,0.288,0.526,0.482,0.454,0.234,0.204,north,7.1,No
2015/08/14,11:30,0.512,0.292,0.523,0.485,0.460,0.235,0.207,north-northeast,7.4,No
2015/08/14,11:40,0.507,0.291,0.526,0.483,0.462,0.236,0.206,north,5.5,No
2015/08/14,11:50,0.507,0.290,0.531,0.481,0.462,0.238,0.204,north,6.7,No
2015/08/14,12:00,0.512,0.287,0.529,0.478,0.459,0.235,0.203,north,5.8,No
2015/08/14,12:10,0.510,0.288,0.527,0.479,0.457,0.236,0.203,north,5.0,No
2015/08/14,12:20,0.509,0.287,0.525,0.485,0.456,0.235,0.203,north,6.9,No
2015/08/14,12:30,0.506,0.286,0.523,0.484,0.456,0.236,0.203,north,6.8,No
2015/08/14,12:40,0.505,0.289,0.529,0.482,0.456,0.236,0.204,north,7.4,No
2015/08/14,12:50,0.510,0.292,0.532,0.480,0.458,0.236,0.203,north-northwest,6.8,No
2015/08/14,13:00,0.514,0.292,0.530,0.479,0.466,0.237,0.205,north,5.2,No
2015/08/14,13:10,0.511,0.291,0.529,0.477,0.463,0.237,0.204,north,4.3,No
2015/08/14,13:20,0.509,0.290,0.527,0.479,0.461,0.238,0.204,north,5.0,No
2015/08/14,13:30,0.507,0.288,0.525,0.480,0.461,0.236,0.205,north,6.7,No
2015/08/14,13:40,0.507,0.290,0.526,0.478,0.460,0.236,0.205,north,5.3,No
2015/08/14,13:50,0.505,0.289,0.525,0.482,0.457,0.238,0.205,north,6.2,No
2015/08/14,14:00,0.505,0.289,0.525,0.481,0.457,0.237,0.206,north,5.9,No
2015/08/14,14:10,0.511,0.290,0.525,0.482,0.458,0.238,0.206,north,7.1,No
2015/08/14,14:20,0.513,0.286,0.524,0.484,0.459,0.238,0.205,north,5.6,No
2015/08/14,14:30,0.512,0.289,0.530,0.482,0.458,0.236,0.206,north,5.2,No
2015/08/14,14:40,0.510,0.288,0.535,0.484,0.456,0.237,0.205,north,6.2,No
2015/08/14,14:50,0.509,0.290,0.533,0.483,0.457,0.237,0.206,north,4.9,No
2015/08/14,15:00,0.506,0.289,0.530,0.484,0.459,0.237,0.205,north,5.3,No
2015/08/14,15:10,0.507,0.287,0.528,0.487,0.456,0.236,0.206,north,6.7,No
2015/08/14,15:20,0.508,0.290,0.526,0.488,0.457,0.236,0.206,north,6.5,No
2015/08/14,15:30,0.514,0.292,0.527,0.484,0.459,0.238,0.206,north,7.6,No
2015/08/14,15:40,0.513,0.293,0.533,0.482,0.465,0.235,0.205,north,7.5,No
2015/08/14,15:50,0.510,0.292,0.533,0.481,0.464,0.237,0.204,north,8.0,No
2015/08/14,16:00,0.509,0.289,0.530,0.484,0.462,0.239,0.205,north,4.6,No
2015/08/14,16:10,0.511,0.289,0.529,0.492,0.458,0.236,0.207,north-northwest,6.1,No
2015/08/14,16:20,0.515,0.292,0.528,0.487,0.460,0.236,0.206,north,6.4,No
2015/08/14,16:30,0.513,0.292,0.536,0.485,0.466,0.236,0.206,north,5.7,No
2015/08/14,16:40,0.509,0.291,0.534,0.479,0.461,0.237,0.205,north-northwest,6.5,No
2015/08/14,16:50,0.509,0.288,0.528,0.489,0.459,0.237,0.205,north,5.6,Yes
2015/08/14,17:00,0.517,0.293,0.530,0.489,0.459,0.238,0.207,north,6.2,Yes
2015/08/14,17:10,0.513,0.295,0.535,0.486,0.467,0.237,0.208,north,6.4,Yes
2015/08/14,17:20,0.508,0.290,0.532,0.482,0.462,0.236,0.206,north,6.9,Yes
2015/08/14,17:30,0.514,0.293,0.528,0.489,0.459,0.239,0.209,north,6.7,Yes
2015/08/14,17:40,0.514,0.296,0.532,0.486,0.467,0.240,0.209,north,5.9,Yes
2015/08/14,17:50,0.509,0.294,0.533,0.479,0.463,0.240,0.208,north-northwest,5.9,Yes
2015/08/14,18:00,0.512,0.294,0.529,0.485,0.458,0.241,0.210,north-northwest,5.6,Yes
2015/08/14,18:10,0.513,0.297,0.534,0.486,0.465,0.241,0.210,north-northwest,5.6,Yes
2015/08/14,18:20,0.508,0.295,0.534,0.481,0.463,0.239,0.210,north,6.7,Yes
2015/08/14,18:30,0.513,0.295,0.527,0.482,0.459,0.240,0.209,north-northwest,6.9,Yes
2015/08/14,18:40,0.513,0.296,0.531,0.485,0.463,0.240,0.209,north,6.8,Yes
2015/08/14,18:50,0.506,0.291,0.531,0.480,0.462,0.238,0.206,north,5.0,Yes
2015/08/14,19:00,0.508,0.291,0.526,0.478,0.456,0.238,0.208,north,6.2,Yes
2015/08/14,19:10,0.511,0.293,0.527,0.484,0.463,0.238,0.207,north-northwest,6.3,Yes
2015/08/14,19:20,0.505,0.291,0.531,0.478,0.461,0.236,0.206,north,6.4,Yes
2015/08/14,19:30,0.506,0.291,0.524,0.477,0.454,0.236,0.208,north,7.3,Yes
2015/08/14,19:40,0.510,0.290,0.526,0.481,0.461,0.236,0.206,north,5.7,Yes
2015/08/14,19:50,0.505,0.288,0.530,0.477,0.459,0.235,0.203,north,5.0,No
2015/08/14,20:00,0.506,0.289,0.523,0.476,0.453,0.236,0.206,north,5.5,Yes
2015/08/14,20:10,0.508,0.289,0.521,0.482,0.460,0.235,0.204,north,7.0,No
2015/08/14,20:20,0.503,0.288,0.528,0.478,0.457,0.234,0.203,north-northwest,7.2,Yes
2015/08/14,20:30,0.503,0.287,0.522,0.473,0.454,0.235,0.203,north-northwest,5.4,Yes
2015/08/14,20:40,0.508,0.290,0.523,0.480,0.458,0.234,0.205,north-northwest,4.5,Yes
2015/08/14,20:50,0.503,0.289,0.528,0.477,0.457,0.233,0.202,north-northwest,5.0,Yes
2015/08/14,21:00,0.502,0.287,0.523,0.473,0.451,0.236,0.205,north-northwest,5.1,Yes
2015/08/14,21:10,0.508,0.291,0.522,0.480,0.462,0.238,0.206,north-northwest,7.0,Yes
2015/08/14,21:20,0.505,0.288,0.531,0.479,0.458,0.236,0.205,north-northwest,7.5,Yes
2015/08/14,21:30,0.504,0.290,0.524,0.474,0.453,0.238,0.207,north-northwest,7.4,Yes
2015/08/14,21:40,0.511,0.292,0.523,0.482,0.462,0.238,0.207,north-northwest,6.9,Yes
2015/08/14,21:50,0.506,0.289,0.530,0.481,0.461,0.239,0.208,north-northwest,6.4,Yes
2015/08/14,22:00,0.506,0.293,0.524,0.475,0.456,0.242,0.210,north-northwest,7.2,Yes
2015/08/14,22:10,0.512,0.293,0.525,0.482,0.464,0.241,0.210,north-northwest,7.4,Yes
2015/08/14,22:20,0.506,0.291,0.531,0.481,0.460,0.240,0.209,north-northwest,7.2,Yes
2015/08/14,22:30,0.506,0.294,0.524,0.474,0.458,0.241,0.210,north-northwest,7.4,Yes
2015/08/14,22:40,0.513,0.294,0.526,0.482,0.465,0.241,0.210,north-northwest,7.5,Yes
2015/08/14,22:50,0.509,0.292,0.527,0.481,0.459,0.240,0.209,north-northwest,7.0,Yes
2015/08/14,23:00,0.507,0.293,0.525,0.475,0.459,0.241,0.208,north-northwest,6.7,Yes
2015/08/14,23:10,0.510,0.292,0.524,0.479,0.462,0.238,0.205,north-northwest,7.1,Yes
2015/08/14,23:20,0.504,0.290,0.529,0.477,0.457,0.237,0.207,north-northwest,6.7,No
2015/08/14,23:30,0.504,0.291,0.521,0.475,0.456,0.236,0.206,north-northwest,6.2,Yes
2015/08/14,23:40,0.510,0.290,0.523,0.482,0.460,0.234,0.203,north-northwest,6.8,Yes
2015/08/14,23:50,0.504,0.287,0.526,0.477,0.455,0.235,0.203,north,6.7,Yes
